Location: Bathurst
(33.4193°S, 149.5775°E)
Time: 22:34:28
(UTC+10:00)

Vanguard 3 - Pass Details

Date: 02 July 2021
Orbit: 508 x 3261 km, 33.4° (Epoch: 25 July)

Event Time Altitude Azimuth Distance (km) Brightness Sun altitude
Rises 17:03:12 0° 271° (W) 5,473 12.7 -0.5°
Reaches altitude 10° 17:06:14 10° 271° (W) 4,772 12.3 -1.0°
Maximum altitude 17:21:25 90° 194° (SSW) 3,012 10.0 -3.9°
Drops below altitude 10° 17:41:52 10° 86° (E) 6,143 11.1 -7.8°
Enters shadow 17:45:40 - 85° (E) 6,892 11.3 -8.5°
